{"data":{"norad_id":55468,"intl_designator":"2023-015V","name":"STARLINK-5672","alt_names":[],"object_type":"PAYLOAD","status":"ACTIVE","operator":null,"country":"US","launch_date":"2023-02-02","launch_site_code":"AFETR","launch_vehicle":null,"mission":null,"orbit_class":"UNKNOWN","rcs_meters":null,"size_class":null,"mass_kg":null,"dimensions":null,"purposes":["comms"],"wikipedia_slug":null,"has_3d_model":false,"image_url":null,"decayed_at":null,"tle_current":{"epoch":"2026-05-25T00:11:20.937408Z","epoch_age_seconds":70533,"freshness":"FRESH","line1":"1 55468U 23015V   26145.00788122  .00002535  00000+0  10166-3 0  9996","line2":"2 55468  42.9998 257.7342 0001345 263.1482  96.9216 15.27568069182395","mean_motion":15.27568069,"eccentricity":0.0001345,"inclination_deg":42.9998,"raan_deg":257.7342,"arg_perigee_deg":263.1482,"mean_anomaly_deg":96.9216,"bstar":0.00010166,"rev_number":18239,"period_min":94.267484979748,"perigee_km":482.16198764328,"apogee_km":484.00765631339,"semimajor_km":6861.2218219783,"source":"CELESTRAK","updated_at":"2026-05-25T13:38:17.806487Z"}}}